Regional Weather Roundup
Issued by NWS

Home | Current Version | Previous Version | Text Only | Print | Product List | Glossary On
Versions: 1 2 3 4 5 6 7 8 9 10 11 12 13 14 15 16 17 18 19 20 21 22 23 24 25 26 27 28 29 30 31 32 33 34 35 36 37 38 39 40 41 42 43 44 45 46 47 48 49 50
000
ASCA44 KEWX 252020
RWRMX

LATIN AMERICA AND CARIBBEAN REGIONAL WEATHER ROUNDUP
NATIONAL WEATHER SERVICE AUSTIN/SAN ANTONIO TX
300 PM CDT TUE JUL 25 2017

NOTE: "FAIR" INDICATED FEW OR NO CLOUDS BELOW 12,000 FEET WITH NO
SIGNIFICANT WEATHER AND/OR OBSTRUCTIONS TO VISIBILITY.

BAJA CALIFORNIA

CITY           SKY/WX    TMP DP  RH WIND       PRES   REMARKS
LORETO         MOSUNNY   91  79  66 NE14      29.86S HX 107
LA PAZ         MOSUNNY   97  63  32 N15       29.88F HX  98
MEXICALI       SUNNY     99  57  25 E10       29.85F HX  97
S.J. DEL CABO  MOSUNNY   88  70  55 SE14      29.92F HX  92
TIJUANA        PTSUNNY   73  64  73 W5        30.02S

NORTHWESTERN MEXICO

CITY           SKY/WX    TMP DP  RH WIND       PRES   REMARKS
CULIACAN       PTSUNNY   97  73  46 NW12      29.87S HX 107
DURANGO        MOSUNNY   79  52  38 CALM      30.28F
GUAYMAS        MOSUNNY   99  77  49 S12       29.83F HX 114
HERMOSILLO     MOSUNNY  102  66  30 SE9       29.92F HX 107
CD. JUAREZ     MOSUNNY   88  59  37 S5        30.14F
LOS MOCHIS     PTSUNNY   93  70  46 W9        29.89F HX  99
OBREGON        PTSUNNY   99  66  34 SW3       29.85F HX 102

NORTHEASTERN MEXICO

CITY           SKY/WX    TMP DP  RH WIND       PRES   REMARKS
CHIHUAHUA      MOSUNNY   88  59  37 E9        30.18F
MATAMOROS      PTSUNNY   93  73  52 SE16      30.03F HX 102
MONCLOVA         N/A    N/A N/A N/A MISG        N/A
MONTERREY      MOSUNNY   99  57  25 SE15      29.97F HX  97
NUEVO LAREDO   MOSUNNY   99  68  36 SE16      29.97F HX 104
PIEDRAS NEGRAS   N/A    N/A N/A N/A MISG        N/A
REYNOSA        PTSUNNY   95  64  36 SE23G35   30.00F HX  97
SALTILLO       PTSUNNY   84  59  42 N14       30.23F
TORREON        MOSUNNY   95  54  24 NE8       30.10F HX  93
CD. VICTORIA   LGT RAIN  72  72 100 SW12      30.09R

WESTERN MEXICO

CITY           SKY/WX    TMP DP  RH WIND       PRES   REMARKS
AGUASCALIENTES PTSUNNY   75  54  46 W5        30.32F
COLIMA         PTSUNNY   86  73  66 SW6       30.03F HX  93
DEL BAJIO      CLOUDY    77  55  47 CALM      30.32F
GUADALAJARA    PTSUNNY   77  57  50 E5        30.22F
MANZANILLO     MOSUNNY   90  75  62 SE17      29.86F HX 100
MAZATLAN       PTSUNNY   90  73  58 CALM      29.90F HX  98
P. VALLARTA    PTSUNNY   93  75  55 SW9       29.86F HX 104
URUAPAN        CLOUDY    72  63  73 S12       30.24F THUNDER
ZACATECAS      PTSUNNY   73  48  40 E7        30.34F

CENTRAL MEXICO

CITY           SKY/WX    TMP DP  RH WIND       PRES   REMARKS
CUERNAVACA     PTSUNNY   75  66  73 SW6       30.18F
MEXICO CITY    CLOUDY    72  50  46 SE8       30.36F
MORELIA        TSTM      59  59 100 SE7       30.31S
POZA RICA      CLOUDY    82  75  78 E7        30.06F
PUEBLA         PTSUNNY   70  55  60 E5        30.37F
QUERETARO      PTSUNNY   72  55  56 NE9       30.33F
S. LUIS POTOSI PTSUNNY   75  50  41 E17       30.28F
TAMPICO        PTSUNNY   79  75  89 CALM      30.05F
TOLUCA         CLOUDY    64  52  63 S14       30.44F

SOUTHERN MEXICO

CITY           SKY/WX    TMP DP  RH WIND       PRES   REMARKS
ACAPULCO       MOSUNNY   88  77  70 SE9       29.88F HX 100
B. DE HUATULCO PTSUNNY  N/A N/A N/A CALM      29.93F
OAXACA         CLOUDY    81  55  41 SW6       30.21F
P. ESCONDIDO   CLOUDY    82  77  83 CALM      30.00F HX  91
VERACRUZ       CLOUDY    84  73  70 CALM      30.01F HX  91
ZIHUATANEJO    PTSUNNY   91  77  62 SW7       29.90F HX 105

YUCATAN PENINSULA

CITY           SKY/WX    TMP DP  RH WIND       PRES   REMARKS
CAMPECHE       PTSUNNY   93  75  55 E12G23    29.96F HX 104
CANCUN         PTSUNNY   91  79  66 NE9       30.04F HX 107
CHETUMAL       PTSUNNY   90  77  66 E12       29.99F HX 102
CD. DEL CARMEN CLOUDY   N/A N/A N/A E12       29.99F
COZUMEL        PTSUNNY   90  77  66 E13       30.03F HX 102
MERIDA         PTSUNNY   88  79  74 N8        30.02F HX 102
MINATITLAN     CLOUDY    82  79  89 N12       29.97S HX  93
TAPACHULA      MOSUNNY   91  77  62 W12       29.87F HX 105
TUX. GUTIERREZ MOSUNNY   90  73  58 N7        29.99F HX  98
VILLAHERMOSA   CLOUDY    88  75  66 NE7       29.99F HX  97

CENTRAL AMERICA

CITY           SKY/WX    TMP DP  RH WIND       PRES   REMARKS
BELIZE CITY    MOSUNNY   90  79  70 E12       29.98F HX 105
MANAGUA        PTCLDY    90  73  58 E14       29.83S HX  98

CARIBBEAN

CITY           SKY/WX    TMP DP  RH WIND       PRES   REMARKS
ARUBA          MOSUNNY   86  77  74 E21       29.83F HX  97
CURACAO        MOSUNNY   88  75  66 E14       29.89S HX  97
KINGSTON       MOSUNNY   90  79  70 SE23      29.94S HX 105
NASSAU         MOSUNNY   95  77  55 E5        30.12F HX 109
SAN JUAN       MOSUNNY   86  75  70 E15       30.01S HX  95
SANTO DOMINGO  PTSUNNY   84  77  79 S5        29.97S HX  94
ST. CROIX      CLOUDY    82  75  78 E14       30.00
ST. KITTS      MOSUNNY   82  77  83 VRB2      29.97F HX  91
ST. THOMAS     MOSUNNY   86  77  74 VRB7      30.00  HX  97

$$





USA.gov is the U.S. government's official web portal to all federal, state and local government web resources and services.